Location: Girdwood
(60.9430°N, 149.1660°W)
Time: 05:40:08
(UTC-08:00)

Iridium 86 - Visible Passes

Search period start: 01 May 2016 00:00
Search period end: 11 May 2016 00:00
Orbit: 776 x 779 km, 86.4° (Epoch: 30 April)

Date Brightness Start Highest point End Pass type
(mag) Time Alt. Az. Time Alt. Az. Time Alt. Az.
01 May 8.1 00:23:07 10° WSW 00:26:59 20° WNW 00:30:51 10° N visible
01 May 7.6 23:48:32 10° SW 23:53:02 28° WNW 23:57:33 10° N visible
02 May 7.0 23:14:16 10° SW 23:19:11 41° WNW 23:24:09 10° N visible
03 May 8.5 00:59:27 10° WNW 01:01:29 12° NW 01:03:33 10° NNW visible
04 May 8.2 00:24:02 10° W 00:27:22 17° NW 00:30:43 10° NNW visible
04 May 8.0 23:49:13 10° WSW 23:53:22 23° WNW 23:57:32 10° N visible
05 May 7.4 23:14:46 10° SW 23:19:28 33° WNW 23:24:11 10° N visible
07 May 8.4 00:25:10 10° W 00:27:49 14° NW 00:30:28 10° NNW visible
07 May 8.2 23:50:02 10° WSW 23:53:44 19° WNW 23:57:27 10° NNW visible
08 May 7.9 23:15:22 10° WSW 23:19:46 26° WNW 23:24:10 10° N visible
10 May 8.7 00:26:39 10° WNW 00:28:17 11° NW 00:29:56 10° NNW visible
10 May 8.4 23:51:01 10° W 23:54:09 16° NW 23:57:17 10° NNW visible
